Location: Unspecified
(0.0000°N, 0.0000°E)
Time: 03:52:38
(UTC+00:00)

N. Korean satellite - Visible Passes

Search period start: 25 February 2018 00:00
Search period end: 07 March 2018 00:00
Orbit: 459 x 514 km, 97.2° (Epoch: 24 February)

Date Brightness Start Highest point End Pass type
(mag) Time Alt. Az. Time Alt. Az. Time Alt. Az.
25 Feb 10.2 05:31:55 10° ENE 05:34:05 15° ESE 05:36:15 10° SE visible
25 Feb 9.5 18:52:51 10° SSW 18:55:31 21° WSW 18:58:11 10° NW visible
01 Mar 10.2 05:30:32 10° ENE 05:32:34 14° E 05:34:36 10° SE visible
01 Mar 9.4 18:51:14 10° SSW 18:53:57 22° W 18:56:40 10° NW visible
05 Mar 10.3 05:29:06 10° ENE 05:31:00 13° E 05:32:52 10° SE visible
05 Mar 9.3 18:49:31 10° SSW 18:52:19 23° W 18:55:08 10° NW visible
